Retour au catalogue

METEOR 2-5 DEB

ActifPO
NORAD 45509·DEBRIS·🇷🇺 Russia

Lancé Oct 31, 1979 depuis Plesetsk Cosmodrome

Loading…

Prochains Passages (prochaines 24 heures)

TLE

PériméSource: Space-Track

Époque: Aug 21, 2026, 05:52 UTC

1 45509U 79095CR  26233.24494507  .00004548  00000-0  13024-2 0  9997
2 45509  81.1860  50.0528 0003172 348.4391 131.2466 14.44913862654712

Suivez METEOR 2-5 DEB en temps réel avec AllMySat

Download on the App Store